Location: WWIN Observatory
(34.8953°N, 91.9583°W)
Time: 03:42:03
(UTC-05:00)

Daily predictions for brighter satellites

Satellite Brightness Start Highest point End
(mag) Time Altitude Azimuth Time Altitude Azimuth Time Altitude Azimuth
Cosmos 2333 Rocket 3.8 03:50:09 10° N 03:55:10 31° ENE 04:00:08 10° ESE
Okean O Rocket 4.2 03:58:56 10° NE 04:00:23 18° NE 04:00:23 18° NE
USA 215 4.0 04:04:36 10° SE 04:08:44 43° SE 04:08:44 43° SE
Lacrosse 5 3.3 04:18:00 33° NE 04:18:00 33° NE 04:20:45 10° NE
CZ-4B R/B 4.4 04:14:35 10° NNE 04:19:38 38° E 04:20:48 34° SE
Cosmos 2237 Rocket 3.4 04:14:49 10° N 04:20:07 40° ENE 04:25:21 10° SE
ATLAS 5 CENTAUR R/B 3.6 04:19:58 10° NNW 04:25:43 41° NE 04:31:48 10° ESE
ADEOS Rocket 4.3 04:23:41 10° NNE 04:30:12 40° E 04:36:04 10° SSE
Cosmos 1980 4.2 04:28:21 10° NNW 04:33:58 59° ENE 04:39:33 10° SE
ADEOS II 4.1 04:31:22 10° NE 04:35:41 25° E 04:39:57 10° SSE
Meteor 1-13 Rocket 4.3 04:37:54 76° N 04:37:54 76° N 04:43:11 10° N
SL-16 R/B 4.3 04:34:55 10° N 04:39:35 26° ENE 04:44:14 10° ESE
RESURS DK-1 3.8 04:46:00 32° NNE 04:46:00 32° NNE 04:48:18 10° NNE
Cosmos 1727 Rocket 3.8 04:46:01 73° SW 04:46:35 80° W 04:52:55 10° N
NOSS 3-4 (A) 3.7 04:48:17 54° NW 04:48:17 54° NW 04:54:26 10° NNE
NOSS 3-4 (C) 3.7 04:48:21 54° NW 04:48:21 54° NW 04:54:32 10° NNE
Gbstr 26 Del rocket 4.3 04:45:46 43° NW 04:48:38 85° SW 04:56:48 10° SE
Cosmos 2227 Rocket 2.4 04:49:36 57° NNW 04:49:36 57° NNW 04:54:28 10° NNE
Cosmos 1346 Rocket 3.7 04:51:14 46° ENE 04:51:14 46° ENE 04:54:41 10° NNE
Cosmos 1680 Rocket 3.7 04:46:00 10° NNW 04:51:17 70° ENE 04:56:29 10° SSE
CZ-2D R/B 4.1 04:48:05 10° NNW 04:49:09 15° NNW 04:49:09 15° NNW
Cosmos 2297 Rocket 2.0 04:57:49 71° WSW 04:58:11 74° WNW 05:03:51 10° NNE
Cosmos 2219 Rocket 3.9 05:02:32 19° S 05:02:32 19° S 05:04:01 10° S
OTV 4 3.3 05:01:46 15° ESE 05:01:46 15° ESE 05:02:19 10° ESE
Okean-O 3.8 05:01:48 10° NNE 05:06:02 43° E 05:10:14 10° S
Cosmos 2298 Rocket 4.3 05:05:20 25° S 05:08:25 69° ESE 05:13:42 10° NNE
Cosmos 2058 Rocket 4.2 05:04:58 10° N 05:09:09 44° E 05:13:19 10° SSE
NOSS 0 Rocket 4.0 05:10:22 10° NNW 05:16:21 50° WSW 05:22:19 10° S
IRS-1C Rocket 4.3 05:11:21 10° N 05:16:23 46° WNW 05:16:36 46° W
Resurs 1-4 Rocket 4.3 05:14:52 10° NNW 05:15:12 11° NW 05:15:12 11° NW
CZ-4B DEB 4.1 05:12:47 10° N 05:18:13 64° WNW 05:20:40 33° SW
Thor Agena Rocket 3.7 05:12:57 10° SSE 05:18:14 78° ENE 05:23:32 10° N
GOES 2 Rocket 4.4 05:16:42 37° SW 05:18:37 49° S 05:25:55 10° ESE
Cosmos 1153 Rocket 4.5 05:13:00 10° NNW 05:19:14 62° W 05:25:31 10° S
Cosmos 2150 Rocket 4.0 05:19:06 18° SSW 05:22:58 82° ESE 05:28:07 10° NNE
Cosmos 1605 Rocket 4.4 05:17:32 10° NNW 05:23:07 37° W 05:23:38 37° W
Cosmos 1025 Rocket 4.0 05:28:00 31° NW 05:28:00 31° NW 05:30:56 10° NNW
Cosmos 2082 4.5 05:28:45 30° WNW 05:29:08 30° WNW 05:34:03 10° N
CZ-4B R/B 3.6 05:25:27 10° N 05:29:34 39° WNW 05:29:35 39° WNW
Meteor 1-15 Rocket 4.3 05:24:46 10° N 05:30:22 80° E 05:36:00 10° S
Meteor 1-31 Rocket 3.9 05:30:33 10° NNE 05:34:19 46° E 05:38:06 10° S
Cosmos 1626 Rocket 4.3 05:34:06 10° S 05:38:22 54° E 05:42:37 10° NNE
Okean O Rocket 3.1 05:35:29 10° NNW 05:37:51 20° NW 05:37:51 20° NW
Cosmos 2333 Rocket 2.8 05:34:23 10° NW 05:39:20 31° WSW 05:44:15 10° SSW
Cosmos 2098 Rocket 3.7 05:35:38 10° N 05:39:38 60° E 05:44:45 10° SSE
NOSS 3-2 (A) 4.3 05:33:24 10° NW 05:40:39 46° WSW 05:48:18 10° S
Okean 2 3.7 05:39:28 32° SW 05:40:47 43° W 05:44:46 10° N
Cosmos 1606 Rocket 3.9 05:40:53 10° NNW 05:44:56 38° W 05:48:56 10° SSW
Feng Yun 1-1 Rocket 4.2 05:39:27 10° N 05:45:09 81° WNW 05:50:57 10° SSW
DELTA 2 R/B (1) 3.7 05:42:40 27° W 05:45:43 67° NNW 05:51:17 10° ENE
MOS 1 Rocket 3.6 05:42:54 10° NNE 05:47:46 79° ESE 05:52:54 10° S
Meteor 2-15 Rocket 4.4 05:42:18 10° S 05:48:22 86° E 05:54:27 10° N
Cosmos 1515 4.1 05:47:52 10° S 05:51:39 65° E 05:55:28 10° NNE
COBE Rocket 3.8 05:47:20 10° NNE 05:52:07 86° ESE 05:56:47 10° S
Delta 2 Rocket 2.9 05:50:41 28° W 05:52:33 89° SSW 05:56:03 10° E
Cosmos 1898 Rocket 3.8 05:49:40 14° SW 05:53:55 46° WNW 05:59:02 10° N
USA 215 4.4 05:50:01 10° SSW 05:54:34 20° WSW 05:56:10 18° WSW
Cosmos 1726 Rocket 4.1 05:51:58 10° NNW 05:55:57 34° W 05:59:52 10° SSW
Cosmos 1666 3.4 05:53:06 10° NNW 05:56:31 31° W 05:59:55 10° SSW
Tiangong 1 3.1 05:55:30 14° NW 05:56:56 18° N 05:59:09 10° NE
Cosmos 2061 Rocket 4.1 05:51:56 10° NNW 05:58:04 54° W 06:04:14 10° SSW
CZ-3A R/B 3.9 05:54:34 10° NW 05:59:13 67° NE 06:13:47 10° SE
Lacrosse 5 3.6 05:57:13 14° WNW 05:59:15 17° NNW 06:02:31 10° N
CZ-4B R/B 4.3 05:55:41 10° NNW 05:59:56 24° WNW 06:02:41 17° WSW
Cosmos 2100 Rocket 4.3 05:55:21 10° NNW 06:01:14 45° W 06:07:09 10° SSW
Cosmos 1602 Rocket 3.5 05:57:03 10° S 06:01:30 79° W 06:05:56 10° N
Cosmos 1802 Rocket 4.0 05:55:30 10° NNW 06:01:30 57° W 06:07:27 10° SSW
Cosmos 2237 Rocket 3.2 05:59:31 10° NW 06:03:50 23° W 06:08:09 10° SSW
Cosmos 2227 4.2 05:59:36 10° SSW 06:05:21 84° WNW 06:11:09 10° NNE
Cosmos 1340 3.9 06:03:41 10° SSE 06:07:17 45° E 06:10:56 10° NNE
Cosmos 1937 Rocket 3.7 06:02:52 10° SW 06:07:53 48° WNW 06:12:59 10° N
Cosmos 292 Rocket 4.3 06:03:38 10° NW 06:08:05 36° WSW 06:12:30 10° SSW
Hubble Space Telescope 3.0 06:08:06 10° SW 06:09:21 11° SSW 06:10:36 10° S
ATLAS 5 CENTAUR R/B 3.1 06:04:53 10° NW 06:10:22 33° WSW 06:16:07 10° S
NOSS 2-2 (D) 3.5 06:09:20 10° SW 06:13:18 59° WNW 06:17:47 10° NNE
Cosmos 1725 Rocket 4.0 06:07:45 10° N 06:14:04 84° W 06:20:19 10° S
ADEOS II 2.8 06:10:42 10° N 06:15:22 33° WNW 06:20:02 10° SW
ADEOS Rocket 4.0 06:09:23 10° N 06:15:25 31° WNW 06:20:58 10° SW
NOAA 6 4.0 06:10:38 10° N 06:15:50 78° WNW 06:21:00 10° SSW
Radarsat Rocket 4.2 06:09:48 10° NNE 06:16:29 86° ESE 06:22:29 10° SSW
CENTAUR R/B 3.3 06:09:00 10° NNW 06:17:00 80° ENE 06:25:22 10° SSE
USA 129 2.4 06:19:15 10° SSW 06:21:03 27° W 06:22:45 10° NW
Cosmos 972 Rocket 4.2 06:17:32 10° SSW 06:22:49 64° WNW 06:28:47 10° N
Centaur D-1A AC-35 3.6 06:20:07 10° SW 06:23:19 25° S 06:26:35 10° ESE
SL-16 R/B 2.6 06:18:32 10° NW 06:23:46 39° WSW 06:28:57 10° S
Cosmos 2228 3.9 06:23:39 10° NNW 06:27:26 29° W 06:31:10 10° SSW
NOSS 2-2 (C) 4.0 06:24:53 10° SW 06:28:44 40° NW 06:33:04 10° NNE
Cosmos 1066 Rocket 4.2 06:23:54 10° S 06:29:29 82° W 06:35:15 10° N
Cosmos 1812 Rocket 3.5 06:25:30 10° N 06:29:56 73° W 06:34:22 10° S
OAO 2 Rocket 3.6 06:25:00 10° WSW 06:30:17 72° SSE 06:35:36 10° E
NOSS 2-2 (E) 4.3 06:26:51 10° WSW 06:30:39 35° NW 06:34:57 10° NNE
